Monticello, IA

1:38 AM CDT on October 18, 2017 (GMT -0500)
Monticello Regional

Weather History for KMXO - April, 2013

Change the Weather History Date:

Tuesday, April 9, 2013

  Actual Average Record
Temperature  
Mean Temperature 50 °F -  
Max Temperature 57 °F 56 °F 77 °F (2017)
Min Temperature 42 °F 35 °F 15 °F (1997)
Degree Days  
Heating Degree Days 16    
Moisture  
Dew Point 43 °F    
Average Humidity 84    
Maximum Humidity 87    
Minimum Humidity 76    
Precipitation  
Precipitation 1.48 in - - ()
Sea Level Pressure  
Sea Level Pressure 29.86 in    
Wind  
Wind Speed 12 mph (ENE)    
Max Wind Speed 20 mph    
Max Gust Speed 26 mph    
Visibility 7 miles    
Events Rain    
Averages and records for this station are not official NWS values.
T = Trace of Precipitation, MM = Missing Value Source: NWS Daily Summary

Daily Weather History Graph

Daily Weather History Graph

Search for Another Location

Airport or City:

Trip Planner

Search our weather history database for the weather conditions in past years. The results will help you decide how hot, cold, wet, or windy it might be!

Date:

Astronomy

Apr. 09, 2013 Rise Set
Actual Time 6:33 AM CDT 7:39 PM CDT
Civil Twilight 6:04 AM CDT 8:08 PM CDT
Nautical Twilight 5:30 AM CDT 8:42 PM CDT
Astronomical Twilight 4:54 AM CDT 9:19 PM CDT
Moon 5:56 AM CDT (4/9) 7:15 PM CDT (4/9)
Length of Visible Light 14h 03m
Length of Day
13h 06m
Waning Crescent, 1% of the Moon is Illuminated
Apr 9
Waning Crescent
Apr 10
New
Apr 18
First Quarter
Apr 25
Full
May 2
Last Quarter

Hourly Weather History & Observations

Time (CDT) Temp. Windchill Dew Point Humidity Pressure Visibility Wind Dir Wind Speed Gust Speed Precip Events Conditions
12:15 AM 57.2 °F - 51.8 °F 82% 29.88 in 10.0 mi ENE 10.4 mph - N/A   Scattered Clouds
12:35 AM 57.2 °F - 50.0 °F 77% 29.88 in 10.0 mi ENE 10.4 mph 17.3 mph N/A   Scattered Clouds
12:55 AM 55.4 °F - 50.0 °F 82% 29.87 in 10.0 mi ENE 12.7 mph 19.6 mph N/A   Scattered Clouds
1:15 AM 55.4 °F - 48.2 °F 77% 29.87 in 7.0 mi ENE 13.8 mph 19.6 mph N/A   Scattered Clouds
1:35 AM 53.6 °F - 48.2 °F 82% 29.87 in 7.0 mi ENE 16.1 mph 21.9 mph N/A   Scattered Clouds
1:55 AM 53.6 °F - 46.4 °F 77% 29.87 in 7.0 mi ENE 9.2 mph 19.6 mph N/A   Mostly Cloudy
2:15 AM 51.8 °F - 46.4 °F 82% 29.88 in 7.0 mi East 12.7 mph 18.4 mph N/A   Mostly Cloudy
2:35 AM 51.8 °F - 46.4 °F 82% 29.88 in 5.0 mi East 9.2 mph - N/A Rain Light Rain
2:55 AM 51.8 °F - 46.4 °F 82% 29.85 in 7.0 mi ENE 12.7 mph 17.3 mph 0.07 in Rain Light Rain
3:15 AM 51.8 °F - 46.4 °F 82% 29.86 in 5.0 mi East 5.8 mph 17.3 mph 0.03 in Rain Light Rain
3:35 AM 51.8 °F - 46.4 °F 82% 29.85 in 5.0 mi East 10.4 mph 16.1 mph 0.14 in Rain Heavy Rain
3:55 AM 51.8 °F - 46.4 °F 82% 29.86 in 2.0 mi NNE 8.1 mph - 0.37 in Rain Heavy Rain
4:15 AM 51.8 °F - 46.4 °F 82% 29.88 in 2.0 mi East 11.5 mph - 0.24 in Rain Heavy Rain
4:35 AM 48.2 °F - 44.6 °F 87% 29.86 in 4.0 mi ENE 10.4 mph - 0.28 in Rain Light Rain
4:55 AM 48.2 °F - 44.6 °F 87% 29.86 in 4.0 mi East 13.8 mph - 0.28 in   Overcast
5:15 AM 48.2 °F - 44.6 °F 87% 29.87 in 3.0 mi ENE 11.5 mph - 0.14 in Rain Rain
5:35 AM 48.2 °F - 44.6 °F 87% 29.86 in 4.0 mi ENE 10.4 mph - 0.16 in   Overcast
5:55 AM 48.2 °F - 44.6 °F 87% 29.86 in 4.0 mi East 11.5 mph - 0.16 in   Overcast
6:15 AM 50.0 °F - 44.6 °F 82% 29.86 in 5.0 mi East 10.4 mph 16.1 mph N/A   Haze
6:35 AM 50.0 °F - 44.6 °F 82% 29.86 in 7.0 mi East 15.0 mph 18.4 mph N/A   Overcast
6:55 AM 48.2 °F - 44.6 °F 87% 29.86 in 7.0 mi East 10.4 mph 16.1 mph N/A   Overcast
7:15 AM 48.2 °F - 44.6 °F 87% 29.86 in 5.0 mi East 10.4 mph - N/A   Haze
7:35 AM 48.2 °F - 44.6 °F 87% 29.88 in 5.0 mi ENE 11.5 mph 18.4 mph N/A   Haze
7:55 AM 48.2 °F - 44.6 °F 87% 29.87 in 7.0 mi ENE 9.2 mph - N/A   Overcast
8:15 AM 48.2 °F - 44.6 °F 87% 29.86 in 7.0 mi East 11.5 mph 17.3 mph N/A   Overcast
8:35 AM 48.2 °F - 44.6 °F 87% 29.84 in 7.0 mi East 16.1 mph - N/A   Overcast
8:55 AM 48.2 °F - 44.6 °F 87% 29.83 in 7.0 mi East 12.7 mph - N/A   Overcast
9:15 AM 48.2 °F - 44.6 °F 87% 29.83 in 7.0 mi East 9.2 mph 16.1 mph N/A   Overcast
9:35 AM 48.2 °F - 44.6 °F 87% 29.81 in 5.0 mi East 9.2 mph - N/A   Haze
9:55 AM 48.2 °F - 44.6 °F 87% 29.81 in 5.0 mi East 10.4 mph - N/A   Haze
10:15 AM 48.2 °F - 44.6 °F 87% 29.80 in 4.0 mi East 11.5 mph 17.3 mph N/A   Haze
10:35 AM 48.2 °F - 44.6 °F 87% 29.80 in 1.2 mi East 11.5 mph - 0.14 in Rain Light Rain
10:55 AM 48.2 °F - 44.6 °F 87% 29.82 in 4.0 mi East 11.5 mph - 0.20 in Rain Rain
11:15 AM 48.2 °F - 44.6 °F 87% 29.81 in 0.8 mi ESE 9.2 mph - 0.35 in   Overcast
11:35 AM 48.2 °F - 44.6 °F 87% 29.83 in 5.0 mi ENE 4.6 mph - 0.37 in   Overcast
11:55 AM 48.2 °F - 44.6 °F 87% 29.77 in 4.0 mi East 15.0 mph 18.4 mph 0.39 in Rain Light Rain
12:15 PM 50.0 °F - 44.6 °F 82% 29.81 in 5.0 mi North 6.9 mph - N/A   Haze
12:35 PM 48.2 °F - 44.6 °F 87% 29.82 in 5.0 mi NNE 4.6 mph - N/A   Overcast
12:55 PM 48.2 °F - 44.6 °F 87% 29.83 in 5.0 mi NNE 6.9 mph - N/A   Overcast
1:15 PM 48.2 °F - 44.6 °F 87% 29.83 in 7.0 mi NNE 9.2 mph - N/A   Overcast
1:35 PM 48.2 °F - 44.6 °F 87% 29.83 in 7.0 mi NE 10.4 mph - N/A   Overcast
1:55 PM 48.2 °F - 44.6 °F 87% 29.83 in 7.0 mi ENE 10.4 mph 16.1 mph N/A   Overcast
2:15 PM 48.2 °F - 44.6 °F 87% 29.82 in 7.0 mi East 11.5 mph 17.3 mph N/A   Overcast
2:35 PM 48.2 °F - 44.6 °F 87% 29.83 in 5.0 mi ENE 12.7 mph - N/A   Overcast
2:55 PM 50.0 °F - 44.6 °F 82% 29.83 in 5.0 mi NE 8.1 mph - N/A   Haze
3:15 PM 50.0 °F - 44.6 °F 82% 29.83 in 7.0 mi NE 6.9 mph - N/A   Overcast
3:35 PM 48.2 °F - 44.6 °F 87% 29.85 in 7.0 mi NNE 15.0 mph 20.7 mph N/A   Overcast
3:55 PM 48.2 °F - 42.8 °F 82% 29.85 in 10.0 mi NNE 16.1 mph 20.7 mph N/A   Overcast
4:15 PM 46.4 °F 39.8 °F 42.8 °F 87% 29.85 in 10.0 mi NNE 16.1 mph 20.7 mph N/A   Overcast
4:35 PM 46.4 °F 41.1 °F 42.8 °F 87% 29.87 in 10.0 mi NE 11.5 mph 17.3 mph N/A   Overcast
4:55 PM 46.4 °F 40.1 °F 41.0 °F 81% 29.87 in 10.0 mi NE 15.0 mph 21.9 mph N/A   Overcast
5:15 PM 44.6 °F 37.4 °F 39.2 °F 81% 29.87 in 10.0 mi NE 16.1 mph 25.3 mph N/A   Overcast
5:35 PM 44.6 °F 37.4 °F 39.2 °F 81% 29.87 in 10.0 mi NE 16.1 mph 23.0 mph N/A   Overcast
5:55 PM 44.6 °F 38.1 °F 39.2 °F 81% 29.88 in 10.0 mi NE 13.8 mph 21.9 mph N/A   Overcast
6:15 PM 44.6 °F 38.1 °F 39.2 °F 81% 29.89 in 10.0 mi NE 13.8 mph 21.9 mph N/A   Overcast
6:35 PM 44.6 °F 38.8 °F 39.2 °F 81% 29.89 in 10.0 mi NE 11.5 mph 18.4 mph N/A   Overcast
6:55 PM 44.6 °F 39.2 °F 39.2 °F 81% 29.88 in 10.0 mi ENE 10.4 mph 18.4 mph N/A   Overcast
7:15 PM 44.6 °F 38.8 °F 39.2 °F 81% 29.87 in 10.0 mi ENE 11.5 mph 24.2 mph N/A   Overcast
7:35 PM 44.6 °F 37.4 °F 39.2 °F 81% 29.88 in 10.0 mi ENE 16.1 mph 21.9 mph N/A   Overcast
7:55 PM 44.6 °F 36.9 °F 39.2 °F 81% 29.87 in 10.0 mi ENE 18.4 mph 26.5 mph N/A   Overcast
8:15 PM 44.6 °F 37.4 °F 39.2 °F 81% 29.88 in 10.0 mi ENE 16.1 mph 25.3 mph N/A   Overcast
8:35 PM 44.6 °F 37.2 °F 39.2 °F 81% 29.89 in 10.0 mi ENE 17.3 mph 25.3 mph N/A   Overcast
8:55 PM 44.6 °F 38.1 °F 39.2 °F 81% 29.90 in 10.0 mi ENE 13.8 mph 19.6 mph N/A   Overcast
9:15 PM 44.6 °F 36.6 °F 37.4 °F 76% 29.90 in 10.0 mi East 19.6 mph 26.5 mph N/A   Overcast
9:55 PM 42.8 °F 36.2 °F 37.4 °F 81% 29.92 in 10.0 mi East 12.7 mph - N/A   Overcast
10:15 PM 42.8 °F 36.2 °F 39.2 °F 87% 29.91 in 10.0 mi East 12.7 mph 18.4 mph N/A   Overcast
10:35 PM 44.6 °F 36.9 °F 39.2 °F 81% 29.90 in 7.0 mi East 18.4 mph 21.9 mph N/A   Overcast
10:55 PM 42.8 °F 35.8 °F 37.4 °F 81% 29.90 in 5.0 mi East 13.8 mph 20.7 mph N/A Rain Light Rain
11:15 PM 42.8 °F 35.1 °F 37.4 °F 81% 29.89 in 7.0 mi East 16.1 mph 25.3 mph 0.01 in Rain Light Rain
11:35 PM 42.8 °F 36.2 °F 37.4 °F 81% 29.90 in 7.0 mi East 12.7 mph 21.9 mph 0.01 in Rain Light Rain
11:55 PM 42.8 °F 35.4 °F 37.4 °F 81% 29.90 in 7.0 mi East 15.0 mph 19.6 mph 0.01 in Rain Light Rain